| time (UTC) | temp F | wind direction | speed knots | gust knots | rain 1hr in | rain 24hr in | rain mn in | humidity % | barometer mb |
| 20260510192723 | 71 | 306 | 0.9 | 7.0 | 0.00 | 0.00 | 0.00 | 29 | 1018.5 |
| 20260510192223 | 73 | 324 | 2.6 | 7.0 | 0.00 | 0.00 | 0.00 | 27 | 1018.5 |
| 20260510191723 | 72 | 258 | 0.0 | 4.3 | 0.00 | 0.00 | 0.00 | 29 | 1018.5 |
| 20260510191223 | 70 | 345 | 3.5 | 7.8 | 0.00 | 0.00 | 0.00 | 30 | 1018.5 |
| 20260510190723 | 71 | 209 | 3.5 | 7.0 | 0.00 | 0.00 | 0.00 | 28 | 1018.5 |
| 20260510190223 | 74 | 299 | 0.9 | 9.6 | 0.00 | 0.00 | 0.00 | 29 | 1018.4 |
| 20260510185723 | 73 | 300 | 0.0 | 5.2 | 0.00 | 0.00 | 0.00 | 31 | 1018.3 |
| 20260510185223 | 72 | 285 | 0.0 | 5.2 | 0.00 | 0.00 | 0.00 | 29 | 1018.2 |
| 20260510184723 | 70 | 11 | 0.0 | 8.7 | 0.00 | 0.00 | 0.00 | 33 | 1018.3 |
| 20260510184223 | 73 | 7 | 2.6 | 7.0 | 0.00 | 0.00 | 0.00 | 31 | 1018.2 |
| 20260510183723 | 72 | 288 | 5.2 | 5.2 | 0.00 | 0.00 | 0.00 | 28 | 1018.2 |
| 20260510183223 | 73 | 7 | 0.9 | 4.3 | 0.00 | 0.00 | 0.00 | 29 | 1018.2 |
| 20260510182723 | 73 | 296 | 3.5 | 7.8 | 0.00 | 0.00 | 0.00 | 28 | 1018.2 |
| 20260510182223 | 73 | 303 | 7.0 | 8.7 | 0.00 | 0.00 | 0.00 | 31 | 1018.1 |
| 20260510181723 | 72 | 316 | 2.6 | 7.0 | 0.00 | 0.00 | 0.00 | 30 | 1018.1 |
| 20260510181223 | 71 | 293 | 1.7 | 4.3 | 0.00 | 0.00 | 0.00 | 34 | 1018.1 |
| 20260510180723 | 72 | 279 | 1.7 | 7.0 | 0.00 | 0.00 | 0.00 | 27 | 1018.1 |
| 20260510180223 | 71 | 350 | 1.7 | 7.0 | 0.00 | 0.00 | 0.00 | 33 | 1018.0 |
| 20260510175723 | 73 | 232 | 2.6 | 6.1 | 0.00 | 0.00 | 0.00 | 31 | 1018.0 |
| 20260510175223 | 72 | 323 | 2.6 | 4.3 | 0.00 | 0.00 | 0.00 | 32 | 1018.0 |
| 20260510174723 | 72 | 85 | 0.0 | 1.7 | 0.00 | 0.00 | 0.00 | 32 | 1017.9 |
| 20260510174223 | 71 | 81 | 0.0 | 1.7 | 0.00 | 0.00 | 0.00 | 29 | 1018.0 |
| 20260510173723 | 71 | 307 | 1.7 | 5.2 | 0.00 | 0.00 | 0.00 | 34 | 1018.2 |
| 20260510173223 | 70 | 317 | 0.9 | 6.1 | 0.00 | 0.00 | 0.00 | 35 | 1018.2 |
| 20260510172723 | 68 | 313 | 0.0 | 3.5 | 0.00 | 0.00 | 0.00 | 33 | 1018.2 |
| 20260510172223 | 68 | 274 | 0.0 | 3.5 | 0.00 | 0.00 | 0.00 | 31 | 1018.3 |
| 20260510171723 | 71 | 305 | 0.0 | 6.1 | 0.00 | 0.00 | 0.00 | 33 | 1018.2 |
| 20260510171223 | 69 | 315 | 2.6 | 7.8 | 0.00 | 0.00 | 0.00 | 36 | 1018.3 |
| 20260510170723 | 68 | 327 | 3.5 | 6.1 | 0.00 | 0.00 | 0.00 | 38 | 1018.3 |
| 20260510170223 | 68 | 331 | 4.3 | 7.8 | 0.00 | 0.00 | 0.00 | 35 | 1018.2 |
| 20260510165723 | 68 | 305 | 1.7 | 3.5 | 0.00 | 0.00 | 0.00 | 36 | 1018.2 |
| 20260510165223 | 67 | 146 | 0.0 | 3.5 | 0.00 | 0.00 | 0.00 | 37 | 1018.2 |
| 20260510164723 | 69 | 307 | 0.9 | 5.2 | 0.00 | 0.00 | 0.00 | 39 | 1018.3 |
| 20260510164223 | 67 | 337 | 4.3 | 4.3 | 0.00 | 0.00 | 0.00 | 46 | 1018.2 |
| 20260510163723 | 66 | 140 | 0.0 | 4.3 | 0.00 | 0.00 | 0.00 | 41 | 1018.2 |
| 20260510163223 | 68 | 317 | 1.7 | 6.1 | 0.00 | 0.00 | 0.00 | 38 | 1018.2 |
| 20260510162723 | 69 | 354 | 3.5 | 3.5 | 0.00 | 0.00 | 0.00 | 36 | 1018.1 |
| 20260510162223 | 68 | 298 | 1.7 | 5.2 | 0.00 | 0.00 | 0.00 | 39 | 1018.1 |
| 20260510161723 | 66 | 352 | 0.9 | 4.3 | 0.00 | 0.00 | 0.00 | 42 | 1018.1 |
| 20260510161223 | 64 | 237 | 0.9 | 7.0 | 0.00 | 0.00 | 0.00 | 43 | 1018.0 |
| 20260510160724 | 65 | 288 | 0.9 | 4.3 | 0.00 | 0.00 | 0.00 | 40 | 1018.1 |
| 20260510160223 | 64 | 307 | 1.7 | 4.3 | 0.00 | 0.00 | 0.00 | 45 | 1018.0 |
| 20260510155723 | 63 | 154 | 0.9 | 2.6 | 0.00 | 0.00 | 0.00 | 43 | 1018.0 |
| 20260510155224 | 63 | 219 | 0.0 | 3.5 | 0.00 | 0.00 | 0.00 | 43 | 1017.9 |
| 20260510154723 | 62 | 9 | 0.9 | 4.3 | 0.00 | 0.00 | 0.00 | 44 | 1017.9 |
| 20260510154223 | 62 | 75 | 0.0 | 6.1 | 0.00 | 0.00 | 0.00 | 49 | 1017.9 |
| 20260510153723 | 61 | 271 | 1.7 | 7.8 | 0.00 | 0.00 | 0.00 | 50 | 1017.8 |
| 20260510153224 | 59 | 299 | 0.0 | 3.5 | 0.00 | 0.00 | 0.00 | 49 | 1017.7 |
| 20260510152723 | 58 | 270 | 0.0 | 5.2 | 0.00 | 0.00 | 0.00 | 52 | 1017.7 |
| 20260510152223 | 57 | 343 | 2.6 | 3.5 | 0.00 | 0.00 | 0.00 | 59 | 1017.7 |
| 20260510151724 | 56 | 302 | 0.9 | 3.5 | 0.00 | 0.00 | 0.00 | 52 | 1017.7 |
| 20260510151224 | 56 | 315 | 1.7 | 5.2 | 0.00 | 0.00 | 0.00 | 58 | 1017.6 |
| 20260510150724 | 55 | 323 | 0.0 | 7.8 | 0.00 | 0.00 | 0.00 | 61 | 1017.6 |
| 20260510150224 | 54 | 247 | 0.0 | 0.9 | 0.00 | 0.00 | 0.00 | 63 | 1017.6 |
| 20260510145724 | 54 | 310 | 0.0 | 5.2 | 0.00 | 0.00 | 0.00 | 61 | 1017.5 |
| 20260510145224 | 54 | 53 | 0.9 | 1.7 | 0.00 | 0.00 | 0.00 | 57 | 1017.4 |
| 20260510144724 | 54 | 39 | 0.0 | 5.2 | 0.00 | 0.00 | 0.00 | 60 | 1017.4 |
| 20260510144224 | 54 | 331 | 0.0 | 5.2 | 0.00 | 0.00 | 0.00 | 63 | 1017.3 |
| 20260510143724 | 53 | 302 | 0.9 | 6.1 | 0.00 | 0.00 | 0.00 | 63 | 1017.2 |
| 20260510143224 | 53 | 11 | 0.0 | 5.2 | 0.00 | 0.00 | 0.00 | 61 | 1017.2 |
| 20260510142724 | 53 | 11 | 0.0 | 4.3 | 0.00 | 0.00 | 0.00 | 66 | 1017.2 |
| 20260510142224 | 53 | 12 | 0.9 | 4.3 | 0.00 | 0.00 | 0.00 | 65 | 1017.3 |
| 20260510141724 | 53 | 57 | 1.7 | 2.6 | 0.00 | 0.00 | 0.00 | 68 | 1017.2 |
| 20260510141224 | 52 | 175 | 0.0 | 2.6 | 0.00 | 0.00 | 0.00 | 61 | 1017.2 |
| 20260510140724 | 52 | 165 | 1.7 | 4.3 | 0.00 | 0.00 | 0.00 | 68 | 1017.1 |
| 20260510140224 | 52 | 358 | 2.6 | 2.6 | 0.00 | 0.00 | 0.00 | 67 | 1017.2 |
| 20260510135724 | 52 | 271 | 0.0 | 4.3 | 0.00 | 0.00 | 0.00 | 61 | 1017.1 |
| 20260510135224 | 51 | 292 | 0.0 | 1.7 | 0.00 | 0.00 | 0.00 | 65 | 1017.2 |
| 20260510134724 | 51 | 150 | 0.0 | 4.3 | 0.00 | 0.00 | 0.00 | 67 | 1017.2 |
| 20260510134224 | 51 | 270 | 0.0 | 4.3 | 0.00 | 0.00 | 0.00 | 70 | 1017.1 |
| 20260510133724 | 51 | 315 | 0.9 | 3.5 | 0.00 | 0.00 | 0.00 | 71 | 1017.1 |
| 20260510133224 | 51 | 267 | 0.0 | 4.3 | 0.00 | 0.00 | 0.00 | 71 | 1017.0 |
| 20260510132724 | 51 | 340 | 0.0 | 3.5 | 0.00 | 0.00 | 0.00 | 73 | 1017.0 |
| 20260510132224 | 50 | 15 | 0.9 | 4.3 | 0.00 | 0.00 | 0.00 | 72 | 1016.9 |
| 20260510131724 | 50 | 146 | 0.0 | 1.7 | 0.00 | 0.00 | 0.00 | 69 | 1016.8 |
| 20260510131224 | 50 | 40 | 0.0 | 3.5 | 0.00 | 0.00 | 0.00 | 71 | 1016.7 |
| 20260510130724 | 50 | 307 | 0.0 | 5.2 | 0.00 | 0.00 | 0.00 | 70 | 1016.7 |
| 20260510130224 | 49 | 87 | 0.0 | 5.2 | 0.00 | 0.00 | 0.00 | 71 | 1016.7 |
| 20260510125724 | 49 | 220 | 0.9 | 6.1 | 0.00 | 0.00 | 0.00 | 74 | 1016.6 |
| 20260510125224 | 49 | 322 | 4.3 | 4.3 | 0.00 | 0.00 | 0.00 | 74 | 1016.6 |
| 20260510124724 | 48 | 14 | 0.0 | 0.0 | 0.00 | 0.00 | 0.00 | 76 | 1016.5 |
| 20260510124224 | 48 | 14 | 0.0 | 0.0 | 0.00 | 0.00 | 0.00 | 78 | 1016.4 |
| 20260510123724 | 47 | 14 | 0.0 | 5.2 | 0.00 | 0.00 | 0.00 | 80 | 1016.3 |
| 20260510123224 | 47 | 312 | 1.7 | 4.3 | 0.00 | 0.00 | 0.00 | 77 | 1016.4 |
| 20260510122724 | 47 | 337 | 0.0 | 2.6 | 0.00 | 0.00 | 0.00 | 76 | 1016.3 |
| 20260510122224 | 47 | 348 | 0.0 | 3.5 | 0.00 | 0.00 | 0.00 | 79 | 1016.3 |
| 20260510121724 | 47 | 264 | 0.0 | 1.7 | 0.00 | 0.00 | 0.00 | 79 | 1016.3 |
| 20260510121224 | 47 | 329 | 0.0 | 4.3 | 0.00 | 0.00 | 0.00 | 78 | 1016.2 |
| 20260510120724 | 47 | 357 | 0.0 | 0.0 | 0.00 | 0.00 | 0.00 | 77 | 1016.2 |
| 20260510120224 | 47 | 357 | 0.0 | 0.0 | 0.00 | 0.00 | 0.00 | 77 | 1016.2 |
| 20260510115724 | 47 | 357 | 0.0 | 0.0 | 0.00 | 0.00 | 0.00 | 77 | 1016.0 |
| 20260510115224 | 47 | 357 | 0.0 | 0.0 | 0.00 | 0.00 | 0.00 | 78 | 1016.0 |
| 20260510114724 | 47 | 357 | 0.0 | 0.0 | 0.00 | 0.00 | 0.00 | 76 | 1015.9 |
| 20260510114224 | 46 | 56 | 0.0 | 0.0 | 0.00 | 0.00 | 0.00 | 79 | 1015.7 |
| 20260510113724 | 45 | 56 | 0.0 | 0.0 | 0.00 | 0.00 | 0.00 | 80 | 1015.7 |
| 20260510113224 | 45 | 56 | 0.0 | 0.0 | 0.00 | 0.00 | 0.00 | 82 | 1015.6 |
| 20260510112724 | 44 | 56 | 0.0 | 0.9 | 0.00 | 0.00 | 0.00 | 83 | 1015.5 |
| 20260510112224 | 44 | 56 | 0.0 | 0.0 | 0.00 | 0.00 | 0.00 | 83 | 1015.4 |
| 20260510111724 | 43 | 56 | 0.0 | 0.0 | 0.00 | 0.00 | 0.00 | 86 | 1015.3 |
| 20260510111224 | 43 | 56 | 0.0 | 0.0 | 0.00 | 0.00 | 0.00 | 87 | 1015.2 |
| 20260510110724 | 42 | 56 | 0.0 | 0.0 | 0.00 | 0.00 | 0.00 | 88 | 1015.0 |
| 20260510110224 | 42 | 56 | 0.0 | 0.0 | 0.00 | 0.00 | 0.00 | 88 | 1015.0 |
| 20260510105724 | 42 | 56 | 0.0 | 0.0 | 0.00 | 0.00 | 0.00 | 88 | 1015.0 |
| 20260510105224 | 42 | 56 | 0.0 | 0.0 | 0.00 | 0.00 | 0.00 | 88 | 1015.0 |
| 20260510104724 | 42 | 56 | 0.0 | 0.0 | 0.00 | 0.00 | 0.00 | 88 | 1014.9 |
| 20260510104224 | 42 | 56 | 0.0 | 0.0 | 0.00 | 0.00 | 0.00 | 88 | 1014.7 |
| 20260510103724 | 42 | 56 | 0.0 | 0.0 | 0.00 | 0.00 | 0.00 | 88 | 1014.7 |
| 20260510103224 | 42 | 56 | 0.0 | 0.0 | 0.00 | 0.00 | 0.00 | 87 | 1014.6 |
| 20260510102724 | 42 | 56 | 0.0 | 0.0 | 0.00 | 0.00 | 0.00 | 87 | 1014.6 |
| 20260510102224 | 42 | 56 | 0.0 | 0.0 | 0.00 | 0.00 | 0.00 | 87 | 1014.7 |
| 20260510101724 | 42 | 56 | 0.0 | 0.0 | 0.00 | 0.00 | 0.00 | 87 | 1014.7 |
| 20260510101224 | 42 | 56 | 0.0 | 0.0 | 0.00 | 0.00 | 0.00 | 87 | 1014.7 |
| 20260510100724 | 43 | 56 | 0.0 | 0.0 | 0.00 | 0.00 | 0.00 | 87 | 1014.6 |
| 20260510100224 | 42 | 56 | 0.0 | 0.0 | 0.00 | 0.00 | 0.00 | 87 | 1014.6 |
| 20260510095724 | 42 | 56 | 0.0 | 0.0 | 0.00 | 0.00 | 0.00 | 87 | 1014.5 |
| 20260510095224 | 43 | 56 | 0.0 | 0.0 | 0.00 | 0.00 | 0.00 | 87 | 1014.4 |
| 20260510094724 | 43 | 56 | 0.0 | 0.0 | 0.00 | 0.00 | 0.00 | 86 | 1014.3 |
| 20260510094224 | 43 | 56 | 0.0 | 0.0 | 0.00 | 0.00 | 0.00 | 86 | 1014.2 |
| 20260510093724 | 43 | 56 | 0.0 | 0.0 | 0.00 | 0.00 | 0.00 | 86 | 1014.1 |
| 20260510093224 | 43 | 56 | 0.0 | 0.0 | 0.00 | 0.00 | 0.00 | 85 | 1014.0 |
| 20260510092724 | 43 | 56 | 0.0 | 0.0 | 0.00 | 0.00 | 0.00 | 85 | 1013.9 |
| 20260510092224 | 44 | 56 | 0.0 | 0.0 | 0.00 | 0.00 | 0.00 | 85 | 1013.8 |
| 20260510091724 | 44 | 56 | 0.0 | 0.0 | 0.00 | 0.00 | 0.00 | 85 | 1013.7 |
| 20260510091224 | 44 | 56 | 0.0 | 0.0 | 0.00 | 0.00 | 0.00 | 84 | 1013.6 |
| 20260510090724 | 44 | 56 | 0.0 | 0.0 | 0.00 | 0.00 | 0.00 | 84 | 1013.6 |
| 20260510090224 | 44 | 56 | 0.0 | 0.0 | 0.00 | 0.00 | 0.00 | 83 | 1013.5 |
| 20260510085724 | 44 | 56 | 0.0 | 0.0 | 0.00 | 0.00 | 0.00 | 82 | 1013.4 |
| 20260510085224 | 45 | 56 | 0.0 | 0.0 | 0.00 | 0.00 | 0.00 | 82 | 1013.2 |
| 20260510084724 | 45 | 56 | 0.0 | 0.0 | 0.00 | 0.00 | 0.00 | 81 | 1013.2 |
| 20260510084224 | 45 | 56 | 0.0 | 0.0 | 0.00 | 0.00 | 0.00 | 81 | 1013.0 |
| 20260510083724 | 45 | 56 | 0.0 | 0.0 | 0.00 | 0.00 | 0.00 | 80 | 1012.9 |
| 20260510083224 | 45 | 56 | 0.0 | 0.0 | 0.00 | 0.00 | 0.00 | 81 | 1012.8 |
| 20260510082724 | 46 | 56 | 0.0 | 0.0 | 0.00 | 0.00 | 0.00 | 80 | 1012.7 |
| 20260510082224 | 46 | 56 | 0.0 | 0.0 | 0.00 | 0.00 | 0.00 | 80 | 1012.6 |
| 20260510081724 | 46 | 56 | 0.0 | 0.0 | 0.00 | 0.00 | 0.00 | 79 | 1012.6 |
| 20260510081224 | 46 | 56 | 0.0 | 0.0 | 0.00 | 0.00 | 0.00 | 79 | 1012.5 |
| 20260510080724 | 46 | 56 | 0.0 | 0.0 | 0.00 | 0.00 | 0.00 | 79 | 1012.4 |
| 20260510080224 | 46 | 56 | 0.0 | 0.0 | 0.00 | 0.00 | 0.00 | 79 | 1012.3 |
| 20260510075724 | 46 | 56 | 0.0 | 0.0 | 0.00 | 0.00 | 0.00 | 79 | 1012.1 |
| 20260510075224 | 46 | 56 | 0.0 | 0.0 | 0.00 | 0.00 | 0.00 | 78 | 1012.0 |
| 20260510074724 | 46 | 56 | 0.0 | 0.0 | 0.00 | 0.00 | 0.00 | 79 | 1011.9 |
| 20260510074224 | 47 | 56 | 0.0 | 4.3 | 0.00 | 0.00 | 0.00 | 77 | 1011.8 |
| 20260510073724 | 47 | 303 | 0.0 | 0.0 | 0.00 | 0.00 | 0.00 | 77 | 1011.7 |
| 20260510073224 | 47 | 303 | 0.0 | 1.7 | 0.00 | 0.00 | 0.00 | 77 | 1011.6 |
| 20260510072724 | 47 | 151 | 0.0 | 2.6 | 0.00 | 0.00 | 0.00 | 77 | 1011.4 |
| 20260510072224 | 47 | 36 | 0.0 | 3.5 | 0.00 | 0.00 | 0.00 | 75 | 1011.5 |
| 20260510071724 | 47 | 21 | 0.0 | 7.0 | 0.00 | 0.00 | 0.00 | 76 | 1011.4 |
| 20260510071224 | 48 | 223 | 0.0 | 7.8 | 0.00 | 0.00 | 0.00 | 75 | 1011.4 |
| 20260510070724 | 48 | 255 | 0.0 | 6.1 | 0.00 | 0.00 | 0.00 | 74 | 1011.4 |
| 20260510070224 | 48 | 331 | 2.6 | 5.2 | 0.00 | 0.00 | 0.00 | 73 | 1011.2 |
| 20260510065724 | 48 | 264 | 0.9 | 5.2 | 0.00 | 0.00 | 0.00 | 72 | 1011.3 |
| 20260510065224 | 48 | 158 | 2.6 | 5.2 | 0.00 | 0.00 | 0.00 | 72 | 1011.3 |
| 20260510064724 | 48 | 236 | 0.0 | 6.1 | 0.00 | 0.00 | 0.00 | 73 | 1011.2 |
| 20260510064224 | 48 | 254 | 0.9 | 6.1 | 0.00 | 0.00 | 0.00 | 75 | 1011.2 |
| 20260510063725 | 49 | 118 | 0.0 | 7.8 | 0.00 | 0.00 | 0.00 | 77 | 1011.3 |
| 20260510063225 | 50 | 233 | 1.7 | 5.2 | 0.00 | 0.00 | 0.00 | 76 | 1011.1 |
| 20260510062725 | 50 | 2 | 0.0 | 5.2 | 0.00 | 0.00 | 0.00 | 77 | 1010.9 |
| 20260510062225 | 50 | 327 | 1.7 | 5.2 | 0.00 | 0.00 | 0.00 | 76 | 1011.0 |
| 20260510061725 | 50 | 354 | 1.7 | 1.7 | 0.00 | 0.00 | 0.00 | 76 | 1010.9 |
| 20260510061225 | 51 | 75 | 0.0 | 2.6 | 0.00 | 0.00 | 0.00 | 75 | 1010.8 |
| 20260510060725 | 50 | 171 | 0.0 | 6.1 | 0.00 | 0.00 | 0.00 | 76 | 1010.6 |
| 20260510060225 | 51 | 243 | 0.0 | 4.3 | 0.00 | 0.00 | 0.00 | 77 | 1010.6 |
| 20260510055725 | 51 | 348 | 0.0 | 3.5 | 0.00 | 0.00 | 0.00 | 75 | 1010.5 |
| 20260510055225 | 51 | 8 | 0.0 | 0.9 | 0.00 | 0.00 | 0.00 | 75 | 1010.5 |
| 20260510054725 | 51 | 133 | 0.0 | 1.7 | 0.00 | 0.00 | 0.00 | 75 | 1010.4 |
| 20260510054225 | 51 | 140 | 0.0 | 0.9 | 0.00 | 0.00 | 0.00 | 74 | 1010.4 |
| 20260510053725 | 52 | 92 | 0.0 | 0.0 | 0.00 | 0.00 | 0.00 | 75 | 1010.4 |
| 20260510053225 | 52 | 92 | 0.0 | 0.0 | 0.00 | 0.00 | 0.00 | 74 | 1010.3 |
| 20260510052725 | 52 | 92 | 0.0 | 0.0 | 0.00 | 0.00 | 0.00 | 75 | 1010.0 |
| 20260510052225 | 52 | 92 | 0.0 | 0.0 | 0.00 | 0.00 | 0.00 | 74 | 1010.2 |
| 20260510051725 | 52 | 92 | 0.0 | 1.7 | 0.00 | 0.00 | 0.00 | 76 | 1009.9 |
| 20260510051225 | 52 | 326 | 0.0 | 0.0 | 0.00 | 0.00 | 0.00 | 74 | 1009.7 |
| 20260510050725 | 52 | 326 | 0.0 | 0.0 | 0.00 | 0.00 | 0.00 | 75 | 1009.7 |
| 20260510050225 | 52 | 326 | 0.0 | 0.0 | 0.00 | 0.00 | 0.00 | 75 | 1009.7 |
| 20260510045725 | 52 | 326 | 0.0 | 0.0 | 0.00 | 0.00 | 0.00 | 76 | 1009.6 |
| 20260510045225 | 52 | 326 | 0.0 | 0.0 | 0.00 | 0.00 | 0.00 | 76 | 1009.5 |
| 20260510044725 | 52 | 326 | 0.0 | 0.0 | 0.00 | 0.00 | 0.00 | 76 | 1009.5 |
| 20260510044225 | 52 | 326 | 0.0 | 0.0 | 0.00 | 0.00 | 0.00 | 77 | 1009.6 |
| 20260510043725 | 53 | 319 | 0.0 | 0.9 | 0.00 | 0.00 | 0.00 | 76 | 1009.6 |
| 20260510043225 | 53 | 60 | 0.0 | 0.0 | 0.00 | 0.00 | 0.00 | 75 | 1009.4 |
| 20260510042725 | 53 | 60 | 0.0 | 1.7 | 0.00 | 0.00 | 0.00 | 75 | 1009.4 |
| 20260510042225 | 53 | 115 | 0.0 | 0.0 | 0.00 | 0.00 | 0.00 | 77 | 1009.4 |
| 20260510041725 | 53 | 115 | 0.0 | 0.9 | 0.00 | 0.00 | 0.00 | 75 | 1009.3 |
| 20260510041225 | 53 | 222 | 0.0 | 0.0 | 0.00 | 0.00 | 0.00 | 72 | 1009.3 |
| 20260510040725 | 54 | 222 | 0.0 | 0.0 | 0.00 | 0.00 | 0.00 | 72 | 1009.6 |
| 20260510040225 | 54 | 222 | 0.0 | 1.7 | 0.00 | 0.00 | 0.00 | 71 | 1009.2 |
| 20260510035725 | 54 | 317 | 0.0 | 5.2 | 0.00 | 0.00 | 0.00 | 70 | 1009.2 |
| 20260510035225 | 54 | 334 | 0.9 | 2.6 | 0.00 | 0.00 | 0.00 | 70 | 1009.1 |
| 20260510034725 | 54 | 299 | 0.0 | 1.7 | 0.00 | 0.00 | 0.00 | 70 | 1009.0 |
| 20260510034225 | 54 | 222 | 0.0 | 3.5 | 0.00 | 0.00 | 0.00 | 70 | 1008.9 |
| 20260510033725 | 54 | 120 | 0.0 | 3.5 | 0.00 | 0.00 | 0.00 | 70 | 1009.0 |
| 20260510033225 | 54 | 122 | 1.7 | 4.3 | 0.00 | 0.00 | 0.00 | 70 | 1008.9 |
| 20260510032725 | 55 | 292 | 0.9 | 3.5 | 0.00 | 0.00 | 0.00 | 69 | 1008.8 |
| 20260510032225 | 55 | 293 | 0.9 | 7.0 | 0.00 | 0.00 | 0.00 | 69 | 1008.7 |
| 20260510031725 | 55 | 352 | 2.6 | 6.1 | 0.00 | 0.00 | 0.00 | 67 | 1008.6 |
| 20260510031225 | 56 | 220 | 0.0 | 5.2 | 0.00 | 0.00 | 0.00 | 67 | 1008.4 |
| 20260510030725 | 56 | 202 | 0.0 | 3.5 | 0.00 | 0.00 | 0.00 | 68 | 1008.3 |
| 20260510030225 | 57 | 125 | 0.0 | 4.3 | 0.00 | 0.00 | 0.00 | 66 | 1008.1 |
| 20260510025725 | 57 | 282 | 0.9 | 4.3 | 0.00 | 0.00 | 0.00 | 68 | 1008.7 |
| 20260510025225 | 57 | 338 | 0.0 | 4.3 | 0.00 | 0.00 | 0.00 | 67 | 1008.3 |
| 20260510024725 | 58 | 203 | 0.0 | 3.5 | 0.00 | 0.00 | 0.00 | 65 | 1007.8 |
| 20260510024225 | 58 | 5 | 0.0 | 5.2 | 0.00 | 0.00 | 0.00 | 65 | 1007.5 |
| 20260510023725 | 58 | 227 | 1.7 | 1.7 | 0.00 | 0.00 | 0.00 | 78 | 1007.2 |
| 20260510023225 | 58 | 292 | 0.0 | 0.0 | 0.00 | 0.00 | 0.00 | 77 | 1006.8 |
| 20260510022725 | 58 | 292 | 0.0 | 0.0 | 0.00 | 0.00 | 0.00 | 76 | 1006.7 |
| 20260510022225 | 58 | 292 | 0.0 | 0.0 | 0.00 | 0.00 | 0.00 | 77 | 1006.6 |
| 20260510021725 | 58 | 292 | 0.0 | 0.0 | 0.00 | 0.00 | 0.00 | 75 | 1006.6 |
| 20260510021225 | 59 | 292 | 0.0 | 0.0 | 0.00 | 0.00 | 0.00 | 75 | 1006.5 |
| 20260510020725 | 59 | 292 | 0.0 | 0.0 | 0.00 | 0.00 | 0.00 | 75 | 1006.5 |
| 20260510020225 | 59 | 292 | 0.0 | 0.0 | 0.00 | 0.00 | 0.00 | 75 | 1006.4 |
| 20260510015725 | 59 | 292 | 0.0 | 0.0 | 0.00 | 0.00 | 0.00 | 73 | 1006.3 |
| 20260510015225 | 59 | 292 | 0.0 | 0.0 | 0.00 | 0.00 | 0.00 | 75 | 1006.2 |
| 20260510014725 | 59 | 292 | 0.0 | 0.0 | 0.00 | 0.00 | 0.00 | 73 | 1006.0 |
| 20260510014225 | 59 | 292 | 0.0 | 0.0 | 0.00 | 0.00 | 0.00 | 76 | 1006.0 |
| 20260510013725 | 59 | 292 | 0.0 | 0.0 | 0.00 | 0.00 | 0.00 | 76 | 1005.8 |
| 20260510013225 | 59 | 292 | 0.0 | 0.0 | 0.00 | 0.00 | 0.00 | 76 | 1005.8 |
| 20260510012725 | 59 | 292 | 0.0 | 0.0 | 0.00 | 0.00 | 0.00 | 76 | 1005.6 |
| 20260510012225 | 59 | 292 | 0.0 | 0.0 | 0.00 | 0.00 | 0.00 | 75 | 1005.4 |
| 20260510011727 | 60 | 292 | 0.0 | 0.0 | 0.00 | 0.00 | 0.00 | 75 | 1005.4 |
| 20260510011225 | 60 | 292 | 0.0 | 0.0 | 0.00 | 0.00 | 0.00 | 75 | 1005.2 |
| 20260510010725 | 60 | 292 | 0.0 | 0.0 | 0.00 | 0.00 | 0.00 | 74 | 1005.1 |
| 20260510010225 | 61 | 292 | 0.0 | 0.0 | 0.00 | 0.00 | 0.00 | 73 | 1005.0 |
| 20260510005725 | 61 | 292 | 0.0 | 0.0 | 0.00 | 0.00 | 0.00 | 72 | 1004.9 |
| 20260510005225 | 61 | 292 | 0.0 | 0.0 | 0.00 | 0.00 | 0.00 | 71 | 1004.8 |
| 20260510004725 | 62 | 292 | 0.0 | 0.0 | 0.00 | 0.00 | 0.00 | 70 | 1004.7 |
| 20260510004225 | 62 | 292 | 0.0 | 0.0 | 0.00 | 0.00 | 0.00 | 71 | 1004.7 |
| 20260510003725 | 62 | 292 | 0.0 | 0.0 | 0.00 | 0.00 | 0.00 | 70 | 1004.7 |
| 20260510003225 | 62 | 292 | 0.0 | 0.0 | 0.00 | 0.00 | 0.00 | 69 | 1004.7 |
| 20260510002725 | 63 | 292 | 0.0 | 3.5 | 0.00 | 0.00 | 0.00 | 71 | 1004.6 |
| 20260510002225 | 63 | 334 | 0.0 | 2.6 | 0.00 | 0.00 | 0.00 | 73 | 1004.6 |
| 20260510001725 | 63 | 347 | 0.0 | 3.5 | 0.00 | 0.00 | 0.00 | 74 | 1004.6 |
| 20260510001225 | 63 | 350 | 0.0 | 1.7 | 0.00 | 0.00 | 0.00 | 74 | 1004.7 |
| 20260510000725 | 63 | 317 | 0.0 | 4.3 | 0.00 | 0.00 | 0.00 | 73 | 1004.6 |
| 20260510000226 | 63 | 247 | 0.0 | 1.7 | 0.00 | 0.00 | 0.00 | 74 | 1004.6 |
| 20260509235725 | 63 | 225 | 0.0 | 1.7 | 0.00 | 0.00 | 0.00 | 74 | 1004.5 |
| 20260509235225 | 63 | 251 | 0.9 | 3.5 | 0.00 | 0.00 | 0.00 | 74 | 1004.5 |
| 20260509234725 | 63 | 210 | 0.0 | 0.0 | 0.00 | 0.00 | 0.00 | 74 | 1004.4 |
| 20260509234225 | 63 | 210 | 0.0 | 0.0 | 0.00 | 0.00 | 0.00 | 73 | 1004.3 |
| 20260509233725 | 63 | 210 | 0.0 | 0.0 | 0.00 | 0.00 | 0.00 | 72 | 1004.1 |
| 20260509233225 | 64 | 210 | 0.0 | 0.0 | 0.00 | 0.00 | 0.00 | 72 | 1004.0 |
| 20260509232725 | 64 | 210 | 0.0 | 0.0 | 0.00 | 0.00 | 0.00 | 71 | 1003.9 |
| 20260509232225 | 64 | 210 | 0.0 | 0.0 | 0.00 | 0.00 | 0.00 | 72 | 1003.8 |
| 20260509231725 | 64 | 210 | 0.0 | 0.0 | 0.00 | 0.00 | 0.00 | 71 | 1003.8 |
| 20260509231225 | 64 | 210 | 0.0 | 0.9 | 0.00 | 0.00 | 0.00 | 70 | 1003.8 |
| 20260509230725 | 64 | 210 | 0.0 | 2.6 | 0.00 | 0.00 | 0.00 | 70 | 1003.7 |
| 20260509230225 | 64 | 198 | 0.0 | 3.5 | 0.00 | 0.00 | 0.00 | 69 | 1003.7 |
| 20260509225725 | 64 | 209 | 0.0 | 4.3 | 0.00 | 0.00 | 0.00 | 68 | 1003.7 |
| 20260509225225 | 64 | 327 | 0.9 | 1.7 | 0.00 | 0.00 | 0.00 | 70 | 1003.6 |
| 20260509224725 | 65 | 229 | 0.0 | 4.3 | 0.00 | 0.00 | 0.00 | 67 | 1003.6 |
| 20260509224225 | 64 | 220 | 0.0 | 3.5 | 0.00 | 0.00 | 0.00 | 69 | 1003.5 |
| 20260509223725 | 64 | 302 | 1.7 | 4.3 | 0.00 | 0.00 | 0.00 | 69 | 1003.5 |
| 20260509223225 | 64 | 341 | 0.9 | 6.1 | 0.00 | 0.00 | 0.00 | 71 | 1003.4 |
| 20260509222725 | 64 | 212 | 0.9 | 4.3 | 0.00 | 0.00 | 0.00 | 70 | 1003.3 |
| 20260509222225 | 64 | 219 | 0.0 | 5.2 | 0.00 | 0.00 | 0.00 | 72 | 1003.2 |
| 20260509221725 | 64 | 4 | 0.0 | 4.3 | 0.00 | 0.00 | 0.00 | 72 | 1003.1 |
| 20260509221225 | 64 | 241 | 0.0 | 6.1 | 0.00 | 0.00 | 0.00 | 74 | 1002.9 |
| 20260509220725 | 64 | 227 | 0.9 | 7.0 | 0.00 | 0.00 | 0.00 | 72 | 1002.9 |
| 20260509220226 | 64 | 267 | 0.0 | 5.2 | 0.00 | 0.00 | 0.00 | 73 | 1002.9 |
| 20260509215725 | 64 | 123 | 0.0 | 5.2 | 0.00 | 0.00 | 0.00 | 69 | 1002.9 |
| 20260509215226 | 63 | 251 | 3.5 | 3.5 | 0.00 | 0.00 | 0.00 | 74 | 1002.9 |
| 20260509214726 | 63 | 322 | 1.7 | 4.3 | 0.00 | 0.00 | 0.00 | 75 | 1002.9 |
| 20260509214226 | 63 | 250 | 0.0 | 4.3 | 0.00 | 0.00 | 0.00 | 76 | 1002.9 |
| 20260509213726 | 63 | 286 | 0.0 | 5.2 | 0.00 | 0.00 | 0.00 | 76 | 1002.9 |
| 20260509213226 | 62 | 208 | 0.0 | 6.1 | 0.00 | 0.00 | 0.00 | 78 | 1002.9 |
| 20260509212726 | 63 | 331 | 0.0 | 3.5 | 0.00 | 0.00 | 0.00 | 78 | 1002.9 |
| 20260509212226 | 62 | 150 | 0.9 | 6.1 | 0.00 | 0.00 | 0.00 | 81 | 1002.9 |
| 20260509211726 | 62 | 302 | 0.0 | 5.2 | 0.00 | 0.00 | 0.00 | 83 | 1002.9 |
| 20260509211226 | 61 | 333 | 0.9 | 3.5 | 0.00 | 0.00 | 0.00 | 85 | 1002.9 |
| 20260509210726 | 60 | 156 | 0.0 | 1.7 | 0.00 | 0.00 | 0.00 | 83 | 1003.1 |
| 20260509210226 | 60 | 105 | 0.0 | 2.6 | 0.00 | 0.00 | 0.00 | 85 | 1002.9 |
| 20260509205726 | 59 | 182 | 0.0 | 2.6 | 0.00 | 0.00 | 0.00 | 86 | 1002.8 |
| 20260509205226 | 60 | 270 | 0.0 | 0.9 | 0.00 | 0.00 | 0.00 | 85 | 1002.8 |
| 20260509204726 | 59 | 102 | 0.0 | 1.7 | 0.00 | 0.00 | 0.00 | 85 | 1002.7 |
| 20260509204226 | 59 | 208 | 1.7 | 2.6 | 0.00 | 0.00 | 0.00 | 84 | 1003.3 |
| 20260509203726 | 59 | 284 | 0.0 | 5.2 | 0.00 | 0.00 | 0.00 | 83 | 1003.2 |
| 20260509203226 | 60 | 323 | 0.0 | 5.2 | 0.00 | 0.00 | 0.00 | 84 | 1003.2 |
| 20260509202726 | 60 | 354 | 2.6 | 3.5 | 0.00 | 0.00 | 0.00 | 83 | 1003.2 |
| 20260509202226 | 60 | 257 | 1.7 | 9.6 | 0.00 | 0.00 | 0.00 | 82 | 1003.7 |
| 20260509201726 | 61 | 300 | 4.3 | 14.8 | 0.00 | 0.00 | 0.00 | 81 | 1003.9 |
| 20260509201226 | 62 | 307 | 5.2 | 16.5 | 0.00 | 0.00 | 0.00 | 83 | 1002.8 |
| 20260509200726 | 64 | 188 | 9.6 | 9.6 | 0.00 | 0.00 | 0.00 | 69 | 1002.3 |
| 20260509200226 | 65 | 260 | 2.6 | 9.6 | 0.00 | 0.00 | 0.00 | 65 | 1002.5 |
| 20260509195726 | 65 | 303 | 1.7 | 10.4 | 0.00 | 0.00 | 0.00 | 66 | 1002.5 |
| 20260509195226 | 65 | 255 | 4.3 | 7.0 | 0.00 | 0.00 | 0.00 | 66 | 1002.4 |
| 20260509194726 | 65 | 223 | 0.0 | 7.8 | 0.00 | 0.00 | 0.00 | 66 | 1002.3 |
| 20260509194226 | 66 | 278 | 2.6 | 8.7 | 0.00 | 0.00 | 0.00 | 66 | 1002.4 |
| 20260509193726 | 66 | 184 | 0.9 | 9.6 | 0.00 | 0.00 | 0.00 | 65 | 1002.5 |
| 20260509193226 | 65 | 234 | 3.5 | 10.4 | 0.00 | 0.00 | 0.00 | 64 | 1002.7 |